Omak, WA

2:22 PM PST on December 09, 2016 (GMT -0800)
Omak

Weather History for KOMK - November, 2012

Change the Weather History Date:

Monday, November 26, 2012

  Actual Average Record
Temperature  
Mean Temperature 27 °F 32 °F  
Max Temperature 34 °F 38 °F 56 °F (1949)
Min Temperature 20 °F 25 °F 8 °F (1967)
Degree Days  
Heating Degree Days 38 33  
Month to date heating degree days 666 735  
Since 1 July heating degree days 1202 1395  
Cooling Degree Days 0 0  
Month to date cooling degree days 0 0  
Year to date cooling degree days 629 665  
Moisture  
Dew Point 25 °F    
Average Humidity 87    
Maximum Humidity 92    
Minimum Humidity 82    
Precipitation  
Precipitation 0.00 in 0.06 in 0.61 in (1944)
Month to date precipitation 2.25 1.34  
Year to date precipitation 14.35 12.28  
Sea Level Pressure  
Sea Level Pressure 30.32 in    
Wind  
Wind Speed 2 mph (South)    
Max Wind Speed 7 mph    
Max Gust Speed 8 mph    
Visibility 10 miles    
Events      
T = Trace of Precipitation, MM = Missing Value Source: NWS Daily Summary

Daily Weather History Graph

Daily Weather History Graph

Search for Another Location

Airport or City:

Trip Planner

Search our weather history database for the weather conditions in past years. The results will help you decide how hot, cold, wet, or windy it might be!

Date:

Astronomy

Nov. 26, 2012 Rise Set
Actual Time 7:22 AM PST 4:08 PM PST
Civil Twilight 6:47 AM PST 4:43 PM PST
Nautical Twilight 6:08 AM PST 5:22 PM PST
Astronomical Twilight 5:30 AM PST 6:00 PM PST
Moon 3:07 PM PST (11/26) 5:32 AM PST (11/26)
Length of Visible Light 9h 56m
Length of Day
8h 45m
Waxing Gibbous, 97% of the Moon is Illuminated
Nov 26
Waxing Gibbous
Nov 28
Full
Dec 6
Last Quarter
Dec 13
New
Dec 19
First Quarter

Hourly Weather History & Observations

Time (PST) Temp. Windchill Dew Point Humidity Pressure Visibility Wind Dir Wind Speed Gust Speed Precip Events Conditions
12:53 AM 23.0 °F - 19.9 °F 88% 30.40 in 10.0 mi Calm Calm - N/A   Clear
1:53 AM 23.0 °F - 19.9 °F 88% 30.40 in 10.0 mi Calm Calm - N/A   Clear
2:53 AM 23.0 °F 18.4 °F 19.9 °F 88% 30.38 in 10.0 mi WNW 3.5 mph - N/A   Clear
3:53 AM 23.0 °F - 19.0 °F 85% 30.38 in 10.0 mi Calm Calm - N/A   Clear
4:53 AM 21.9 °F - 19.0 °F 89% 30.38 in 10.0 mi Calm Calm - N/A   Clear
5:53 AM 21.0 °F - 18.0 °F 88% 30.39 in 10.0 mi Calm Calm - N/A   Clear
6:53 AM 19.9 °F - 17.1 °F 89% 30.38 in 10.0 mi Calm Calm - N/A   Partly Cloudy
7:05 AM 21.2 °F 16.4 °F 19.4 °F 93% 30.32 in 10.0 mi WNW 3.5 mph - N/A   Mostly Cloudy
7:35 AM 21.2 °F - 19.4 °F 93% 30.32 in 10.0 mi Calm Calm - N/A   Scattered Clouds
7:44 AM 23.0 °F 18.4 °F 19.4 °F 86% 30.32 in 10.0 mi WNW 3.5 mph - N/A   Mostly Cloudy
7:53 AM 24.1 °F 19.7 °F 21.0 °F 88% 30.38 in 10.0 mi NW 3.5 mph - N/A   Mostly Cloudy
8:53 AM 27.0 °F - 24.1 °F 89% 30.38 in 10.0 mi Calm Calm - N/A   Mostly Cloudy
9:09 AM 28.4 °F - 24.8 °F 86% 30.32 in 10.0 mi Calm Calm - N/A   Scattered Clouds
9:27 AM 28.4 °F - 24.8 °F 86% 30.32 in 10.0 mi Calm Calm - N/A   Mostly Cloudy
9:53 AM 28.9 °F - 25.0 °F 85% 30.36 in 10.0 mi Calm Calm - N/A   Overcast
10:53 AM 30.0 °F - 27.0 °F 88% 30.35 in 10.0 mi Calm Calm - N/A   Overcast
11:53 AM 30.9 °F 26.2 °F 28.0 °F 89% 30.33 in 10.0 mi South 4.6 mph - N/A   Overcast
12:53 PM 32.0 °F - 28.0 °F 85% 30.31 in 10.0 mi Calm Calm - N/A   Mostly Cloudy
1:22 PM 33.8 °F 30.8 °F 28.4 °F 81% 30.25 in 10.0 mi SSE 3.5 mph - N/A   Scattered Clouds
1:53 PM 33.1 °F 28.7 °F 28.0 °F 82% 30.28 in 10.0 mi SSE 4.6 mph - N/A   Partly Cloudy
2:53 PM 33.1 °F 28.7 °F 28.0 °F 82% 30.28 in 10.0 mi SE 4.6 mph - N/A   Scattered Clouds
3:04 PM 33.8 °F 27.7 °F 28.4 °F 81% 30.22 in 10.0 mi SSE 6.9 mph - N/A   Scattered Clouds
3:53 PM 30.9 °F 25.2 °F 28.0 °F 89% 30.28 in 10.0 mi SSE 5.8 mph - N/A   Clear
4:13 PM 30.2 °F 24.3 °F 28.4 °F 93% 30.22 in 10.0 mi SSE 5.8 mph - N/A   Mostly Cloudy
4:53 PM 30.0 °F 24.1 °F 28.0 °F 92% 30.29 in 10.0 mi South 5.8 mph - N/A   Overcast
5:12 PM 30.2 °F - 28.4 °F 93% 30.23 in 10.0 mi Calm Calm - N/A   Mostly Cloudy
5:53 PM 30.9 °F - 28.0 °F 89% 30.29 in 10.0 mi Calm Calm - N/A   Overcast
6:53 PM 30.9 °F - 28.0 °F 89% 30.29 in 10.0 mi Calm Calm - N/A   Overcast
7:53 PM 30.9 °F - 28.0 °F 89% 30.29 in 10.0 mi Calm Calm - N/A   Overcast
8:53 PM 30.9 °F - 28.0 °F 89% 30.30 in 10.0 mi Calm Calm - N/A   Overcast
9:53 PM 30.9 °F - 28.0 °F 89% 30.30 in 10.0 mi Calm Calm - N/A   Overcast
10:53 PM 30.0 °F 26.5 °F 28.0 °F 92% 30.30 in 10.0 mi SSE 3.5 mph - N/A   Overcast
11:53 PM 30.0 °F 26.5 °F 27.0 °F 88% 30.30 in 10.0 mi South 3.5 mph - N/A   Overcast